Location: Commenchon
(49.6411°N, 3.1571°E)
Time: 12:04:00
(UTC+00:00)

Tsikada Rocket - Pass Details

Date: 15 May 2026
Orbit: 956 x 1009 km, 82.9° (Epoch: 5 June)

Event Time Altitude Azimuth Distance (km) Brightness Sun altitude
Rises 20:37:04 0° 348° (NNW) 3,657 8.1 -9.9°
Reaches altitude 10° 20:39:36 10° 345° (NNW) 2,703 7.4 -10.2°
Maximum altitude 20:45:40 63° 266° (W) 1,062 4.4 -10.8°
Drops below altitude 10° 20:51:42 10° 187° (S) 2,683 5.9 -11.5°
Enters shadow 20:53:28 - 185° (S) 3,343 6.4 -11.7°
